Other Public Products
Issued by NWS Grand Forks, ND

Home | Current Version | Previous Version | Text Only | Print | Product List | Glossary Off
Versions: 1 2 3 4 5 6 7 8 9 10 11 12 13 14 15 16 17 18 19 20 21 22 23 24 25 26 27 28 29 30 31 32 33 34 35 36 37 38 39 40 41 42 43 44 45 46 47 48 49 50

000
FPUS83 KFGF 031331
OPUFGF
PRAIRIE TO PINES WEATHER ROUNDUP
NATIONAL WEATHER SERVICE EASTERN NORTH DAKOTA/GRAND FORKS ND
800 AM CDT THU SEP 03 2015

 **SATELLITE DATA USED TO AUGMENT SKY COVER AT AUTOMATED STATIONS**
 *****  WEATHER ACROSS EASTERN NORTH DAKOTA  *****

CITY           SKY/WX    TMP DP  RH WIND       PRES   REMARKS
GRAND FORKS    CLOUDY    71  69  93 SE17      29.78R FOG
GRAND FORKS AF CLOUDY    71  71  99 SE14      29.78R FOG
GRAND CITY NWS   N/A     70 N/A N/A SE22        N/A
BUXTON         NOT AVBL
DEVILS LAKE    CLOUDY    72  64  78 SE14G23   29.72F
FARGO          CLOUDY    73  68  84 SE13      29.79S
WAHPETON ARPT  CLOUDY    70  66  88 SE14      29.82R
$$

 *****  WEATHER ACROSS CENTRAL AND WESTERN NORTH DAKOTA  *****

CITY           SKY/WX    TMP DP  RH WIND       PRES   REMARKS
JAMESTOWN      CLOUDY    73  70  90 SE14      29.74S FOG
BISMARCK       CLEAR     67  66  97 E9        29.69R
MINOT          CLOUDY    70  68  93 VRB5      29.68R FOG
MINOT AFB      FOG       70  70 100 SE7       29.67R VSB 1/2
GARRISON         N/A     69  30  23 SE6       29.67R
WILLISTON      PTCLDY    64  50  60 N10       29.69R
DICKINSON      CLEAR     63  54  72 S7        29.67R
HETTINGER      CLEAR     54  51  90 CALM      29.72R
$$

 *****  OTHER OBSERVATIONS NORTHEAST NORTH DAKOTA  *****

CITY           SKY/WX    TMP DP  RH WIND       PRES   REMARKS
WALHALLA       FAIR      68  68 100 MISG      29.76S FOG
LANGDON        FOG       70  70 100 SE10G18   29.77S VSB 1/4
CAVALIER       FOG       68  68 100 SE7       29.77S VSB 1/2
GRAFTON        FOG       70  70 100 SE14      29.79R VSB 3/4
CANDO          CLOUDY    73  72  94 SE17      29.73S FOG
FORT TOTTEN      N/A     71  71 100 S14       29.95S
ROLLA          CLOUDY    72  72 100 S14       29.74S FOG
RUGBY          CLOUDY    73  73 100 SE16      29.70S
 ***** THE ABOVE OBSERVATIONS ARE NON NWS ARE NOT QUALITY
        CONTROLLED AND MAY MIS-REPORT RAIN FOR SNOW...
$$

 *****  OTHER OBSERVATIONS SOUTHEAST NORTH DAKOTA *****

CITY           SKY/WX    TMP DP  RH WIND       PRES   REMARKS
COOPERSTOWN    NOT AVBL
VALLEY CITY    FOG       70  70 100 SE13G21   29.78S VSB 3/4
OAKES            N/A     72  72 100 E9        29.77S FOG
GWINNER        CLOUDY    72  72 100 SE14      29.78S
SHEYENNE NWR     N/A     72  71  96 SE12      29.95S
BUFFALO        NOT AVBL
WYNDMERE         N/A     72  72 100 SE12        N/A
 ***** THE ABOVE OBSERVATIONS ARE NON NWS ARE NOT QUALITY
       CONTROLLED AND MAY MIS-REPORT RAIN FOR SNOW...
$$

  *****  WEATHER ACROSS NORTHERN MINNESOTA  *****

CITY           SKY/WX    TMP DP  RH WIND       PRES   REMARKS
FLAG ISLAND    CLOUDY    66  63  88 S20       29.88S
WARROAD        CLOUDY    64  61  88 SE9       29.88S
ROSEAU         CLOUDY    68  63  83 SE12      29.86S HAZE
HALLOCK        CLOUDY    70  66  88 SE14      29.80R FOG
THF RVR FALLS  CLOUDY    70  68  94 SE15      29.84S
HALSTAD        NOT AVBL
FOSSTON        SUNNY     70  64  83 SE10G20   29.86S
BAUDETTE       CLOUDY    65  62  90 SE15      29.92R
WASKISH        CLOUDY    64  64 100 E8        29.92F FOG
CROOKSTON      MOSUNNY   73  70  88 SE14      29.81S
$$
  *****  WEATHER ACROSS CENTRAL AND WEST MINNESOTA  *****

CITY           SKY/WX    TMP DP  RH WIND       PRES   REMARKS
BEMIDJI        CLOUDY    66  64  91 SE12      29.91S
PARK RAPIDS    PTSUNNY   68  64  87 SE9       29.90F
WADENA         PTSUNNY   68  64  88 SE12      29.89S
DETROIT LAKES  CLOUDY    70  64  83 SE16      29.87S
MOORHEAD       PTSUNNY   72  70  94 SE12      29.81S
FERGUS FALLS   CLOUDY    72  72 100 SE13      29.83S FOG
ELBOW LAKE     CLOUDY    68  68  99 SE10G16   29.85S FOG
MORRIS MN      FOG       70  70 100 SE13      29.84S VSB 1/4
STAPLES        CLOUDY    66  64  94 E7        29.91S
WHEATON        CLOUDY    68  66  94 SE14      29.83S FOG
$$
  *****  WEATHER ELSEWHERE ACROSS MINNESOTA  *****

CITY           SKY/WX    TMP DP  RH WIND       PRES   REMARKS
DULUTH         DRZL/FOG  61  60  97 E9        29.99R VSB 1/4
INTRNTL FALLS  CLOUDY    63  62  97 SE8       29.96R
ELY            FOG       57  55  94 CALM      30.01R VSB 3/4
CLOQUET        FOG       61  59  94 E5        29.98S VSB 1/4
BRAINERD       PTSUNNY   67  65  93 VRB3      29.93S
HIBBING        CLOUDY    61  60  97 SE8       29.99R FOG
ALEXANDRIA     FOG       67  67 100 E9        29.90S VSB 1/4
SAINT CLOUD    MOSUNNY   68  66  93 E7        29.91S
MINNEAPOLIS    CLOUDY    69  68  96 SE7       29.92R FOG
$$

  *****  WEATHER ACROSS SOUTH DAKOTA  *****

CITY           SKY/WX    TMP DP  RH WIND       PRES   REMARKS
SIOUX FALLS    SUNNY     70  67  90 SE7       29.84R
BROOKINGS      SUNNY     70  66  88 SE10      29.86R
WATERTOWN      SUNNY     70  67  90 SE9       29.82S
HURON          SUNNY     69  67  93 MISG      29.78R
SISSETON         N/A     70  70 100 S14G21    29.80S
ABERDEEN       SUNNY     71  68  90 S12       29.76R
MITCHELL       SUNNY     69  67  93 SE9       29.79R
PIERRE         CLEAR     67  62  84 CALM      29.73R
MOBRIDGE       CLEAR     69  64  84 SE9       29.69S
RAPID CITY     CLEAR     62  51  67 CALM      29.79S
$$

  *****  SOME WEATHER IN NEARBY STATES *****

CITY           SKY/WX    TMP DP  RH WIND       PRES   REMARKS
GLASGOW MT     PTCLDY    65  35  33 N10G17    29.76R
GREAT FALLS MT MOCLDY    53  36  52 N5        29.95R
CHEYENNE WY    MOCLDY    61  44  53 W5        30.08R
SCOTTSBLUFF NE PTCLDY    59  52  77 NW3       29.92R
OMAHA NE       MOSUNNY   75  68  78 S9        29.86R
DES MOINES IA  PTSUNNY   74  69  85 S6        29.91R
DAVENPORT IA   SUNNY     74  69  85 S6        29.97R
CHICAGO IL     MOSUNNY   75  68  78 SW7       29.96R
EAU CLAIRE WI  FOG       66  65  96 NE10      29.93S VSB 1/4
LA CROSSE WI   SUNNY     72  69  90 CALM      29.92R FOG
$$

  *****  SOME NATIONAL WEATHER *****

CITY           SKY/WX    TMP DP  RH WIND       PRES   REMARKS
LA GUARDIA NY  MOSUNNY   79  64  60 N5        29.88S
RALEIGH NC     PTSUNNY   73  69  87 CALM      29.97S
ATLANTA GA     CLOUDY    76  70  82 W6        30.03R
NEW ORLEANS LA CLOUDY    81  74  79 E6        29.99R
OKLAHOMA CITY  MOSUNNY   69  65  86 S5        29.99R
ALBUQUERQUE NM CLOUDY    64  47  53 SE3       30.17R
SALT LAKE CITY MOCLDY    75  41  29 S15       29.90R
LOS ANGELES CA CLOUDY    68  60  75 CALM      29.90F
BOISE ID       MOCLDY    56  43  61 W9        29.88R
SEATTLE WA     CLOUDY    53  50  89 S5        30.01R
$$

*** WEATHER ACROSS MANITOBA...SASKATCHEWAN AND ONTARIO ***
                ***ONTARIO***

CITY           SKY/WX    TMP DP  RH WIND       PRES   REMARKS
GERALDTON      SUNNY     61  59  94 CALM      30.06R
THUNDER BAY    MOSUNNY   54  54 100 W3        30.02R
SIOUX LOOKOUT  MOSUNNY   63  61  94 SE6       29.98S
TORONTO        CLOUDY    75  72  88 N8        29.96S
BIG TROUT LK   LGT RAIN  63  61  94 SW5       29.84F
PICKLE LAKE    PTSUNNY   64  57  77 SW5       29.98S
DRYDEN         SUNNY     63  61  94 S8        29.96F
KENORA         MOSUNNY   66  64  94 SE13      29.91F
$$
                *** MANITOBA***

CITY           SKY/WX    TMP DP  RH WIND       PRES   REMARKS
BRANDON        CLOUDY    73  72  94 SE6       29.72R FOG
DAUPHIN        CLEAR     70  66  88 VRB2      29.70S
ISLAND LAKE    MOSUNNY   63  61  94 S9        29.79  THUNDER
PILOT MOUND      N/A     70  68  94 SE12        N/A
THE PAS        MOCLDY    61  59  94 SE13      29.70R
THOMPSON       PTSUNNY   59  57  94 E6        29.70S
WINNIPEG       CLOUDY    70  68  94 S16G22    29.78R
LYNN LAKE      PTCLDY    57  55  94 E6        29.67F
CHURCHILL      CLOUDY    48  48 100 VRB3      29.80R
$$
                ***SASKATCHEWAN***

CITY           SKY/WX    TMP DP  RH WIND       PRES   REMARKS
ESTEVAN        PTCLDY    61  59  94 NW8       29.69R
KINDERSLEY     LGT RAIN  48  43  81 NW3       29.88R
LLOYDMINSTER   CLOUDY    46  43  87 W14       29.85R
PRINCE ALBERT  MOCLDY    55  50  82 W8        29.74R
REGINA         PTCLDY    50  46  87 N5        29.75S
YORKTON        MOCLDY    61  55  82 N3        29.74S



USA.gov is the U.S. government's official web portal to all federal, state and local government web resources and services.